When you browse on this site, cookies collect data to enhance your experience and personalize the content and advertising you see.
Visit our Privacy Policy to learn more. By continuing to use the site, you agree to this use of cookies and data.
  • In Romania
  • List of Countries
  • For 7 days
  • Water Temperature
  • Satellite Maps
  • Weather Map
  • Weather Widgets
  • user-avatar
    Login

    Hourly Weather Lisieux

    Today, 20 April, Saturday

    Time Temperature Precipitation Wind Pressure Humidity
    00:00 +11°C° 0 mm 3 mps 761 mmHg 78%
    01:00 +10°C° 0 mm 3 mps 761 mmHg 77%
    02:00 +10°C° 0 mm 3 mps 761 mmHg 77%
    03:00 +10°C° 0 mm 2 mps 761 mmHg 77%
    04:00 +10°C° 0 mm 2 mps 761 mmHg 78%
    05:00 +10°C° 0 mm 2 mps 761 mmHg 80%
    06:00 +10°C° 0 mm 2 mps 761 mmHg 80%
    07:00 +13°C° 0 mm 2 mps 761 mmHg 77%
    08:00 +14°C° 0 mm 3 mps 761 mmHg 74%
    09:00 +17°C° 0 mm 3 mps 761 mmHg 72%
    10:00 +19°C° 0 mm 3 mps 761 mmHg 68%
    11:00 +21°C° 0 mm 4 mps 761 mmHg 65%
    12:00 +22°C° 0 mm 4 mps 761 mmHg 61%
    13:00 +23°C° 0 mm 4 mps 761 mmHg 60%
    14:00 +23°C° 0 mm 4 mps 760 mmHg 59%
    15:00 +23°C° 0 mm 4 mps 760 mmHg 57%
    16:00 +22°C° 0 mm 4 mps 760 mmHg 63%
    17:00 +20°C° 0 mm 4 mps 759 mmHg 69%
    18:00 +19°C° 0 mm 3 mps 759 mmHg 74%
    19:00 +17°C° 0 mm 3 mps 759 mmHg 76%
    20:00 +16°C° 0 mm 3 mps 759 mmHg 79%
    21:00 +13°C° 0 mm 3 mps 760 mmHg 81%
    22:00 +13°C° 0 mm 3 mps 759 mmHg 82%
    23:00 +13°C° 0 mm 2 mps 759 mmHg 82%

    Tomorrow, 21 April, Sunday

    Time Temperature Precipitation Wind Pressure Humidity
    00:00 +13°C° 0 mm 2 mps 759 mmHg 83%
    01:00 +12°C° 0 mm 2 mps 758 mmHg 82%
    02:00 +12°C° 0 mm 2 mps 758 mmHg 81%
    03:00 +10°C° 0 mm 2 mps 757 mmHg 80%
    04:00 +12°C° 0 mm 2 mps 757 mmHg 81%
    05:00 +12°C° 0 mm 1 mps 757 mmHg 82%
    06:00 +12°C° 0 mm 1 mps 757 mmHg 83%
    07:00 +14°C° 0 mm 1 mps 757 mmHg 78%
    08:00 +16°C° 0 mm 2 mps 756 mmHg 73%
    09:00 +18°C° 0 mm 2 mps 756 mmHg 68%
    10:00 +20°C° 0 mm 2 mps 756 mmHg 64%
    11:00 +21°C° 0 mm 2 mps 755 mmHg 59%
    12:00 +22°C° 0 mm 3 mps 755 mmHg 55%
    13:00 +22°C° 0 mm 3 mps 754 mmHg 55%
    14:00 +22°C° 0 mm 3 mps 754 mmHg 55%
    15:00 +22°C° 0 mm 3 mps 753 mmHg 55%
    16:00 +21°C° 0 mm 3 mps 753 mmHg 62%
    17:00 +20°C° 0 mm 3 mps 752 mmHg 68%
    18:00 +19°C° 0 mm 2 mps 752 mmHg 75%
    19:00 +17°C° 0 mm 2 mps 752 mmHg 79%
    20:00 +15°C° 0 mm 2 mps 752 mmHg 83%
    21:00 +14°C° 0 mm 2 mps 752 mmHg 88%
    22:00 +13°C° 0 mm 2 mps 751 mmHg 88%
    23:00 +13°C° 0 mm 2 mps 750 mmHg 88%

    Day after tomorrow, 22 April, Monday

    Time Temperature Precipitation Wind Pressure Humidity
    00:00 +12°C° 0 mm 2 mps 750 mmHg 88%
    01:00 +12°C° 0 mm 2 mps 749 mmHg 86%
    02:00 +10°C° 0 mm 2 mps 749 mmHg 85%
    03:00 +10°C° 0 mm 2 mps 748 mmHg 83%
    04:00 +10°C° 0 mm 2 mps 747 mmHg 83%
    05:00 +10°C° 0 mm 2 mps 747 mmHg 84%
    06:00 +10°C° 0 mm 2 mps 747 mmHg 84%
    07:00 +13°C° 0 mm 2 mps 746 mmHg 80%
    08:00 +16°C° 0 mm 2 mps 746 mmHg 76%
    09:00 +18°C° 0 mm 3 mps 746 mmHg 72%
    10:00 +19°C° 0.1 mm 3 mps 745 mmHg 70%
    11:00 +20°C° 0.1 mm 3 mps 744 mmHg 68%
    12:00 +21°C° 0.1 mm 3 mps 744 mmHg 66%
    13:00 +21°C° 0.5 mm 3 mps 743 mmHg 66%
    14:00 +21°C° 0.5 mm 3 mps 743 mmHg 66%
    15:00 +21°C° 0.5 mm 2 mps 742 mmHg 66%
    16:00 +20°C° 0.3 mm 2 mps 742 mmHg 70%
    17:00 +20°C° 0.3 mm 2 mps 742 mmHg 75%
    18:00 +20°C° 0.3 mm 1 mps 741 mmHg 79%
    19:00 +18°C° 0 mm 1 mps 741 mmHg 81%
    20:00 +16°C° 0 mm 1 mps 741 mmHg 83%
    21:00 +14°C° 0 mm 1 mps 741 mmHg 86%
    22:00 +14°C° 0 mm 2 mps 741 mmHg 86%
    23:00 +14°C° 0 mm 2 mps 741 mmHg 87%

    23 April, Tuesday

    Time Temperature Precipitation Wind Pressure Humidity
    00:00 +13°C° 0 mm 2 mps 740 mmHg 87%
    01:00 +13°C° 0.1 mm 2 mps 740 mmHg 88%
    02:00 +13°C° 0.1 mm 2 mps 740 mmHg 88%
    03:00 +13°C° 0.1 mm 2 mps 739 mmHg 89%
    04:00 +13°C° 0.1 mm 2 mps 739 mmHg 89%
    05:00 +13°C° 0.1 mm 2 mps 739 mmHg 90%
    06:00 +13°C° 0.1 mm 2 mps 739 mmHg 90%
    07:00 +15°C° 0 mm 2 mps 739 mmHg 86%
    08:00 +17°C° 0 mm 2 mps 739 mmHg 81%
    09:00 +19°C° 0 mm 2 mps 739 mmHg 77%
    10:00 +20°C° 0 mm 2 mps 739 mmHg 72%
    11:00 +20°C° 0 mm 2 mps 738 mmHg 67%
    12:00 +22°C° 0 mm 1 mps 738 mmHg 62%
    13:00 +21°C° 0.3 mm 2 mps 738 mmHg 64%
    14:00 +21°C° 0.3 mm 2 mps 737 mmHg 66%
    15:00 +21°C° 0.3 mm 2 mps 737 mmHg 68%
    16:00 +20°C° 0 mm 2 mps 737 mmHg 73%
    17:00 +19°C° 0 mm 2 mps 737 mmHg 77%
    18:00 +18°C° 0 mm 2 mps 737 mmHg 81%
    19:00 +18°C° 0 mm 2 mps 737 mmHg 83%
    20:00 +17°C° 0 mm 2 mps 737 mmHg 86%
    21:00 +16°C° 0 mm 2 mps 737 mmHg 88%
    22:00 +15°C° 0.6 mm 2 mps 737 mmHg 90%
    23:00 +14°C° 0.6 mm 3 mps 737 mmHg 93%

    24 April, Wednesday

    Time Temperature Precipitation Wind Pressure Humidity
    00:00 +13°C° 0.6 mm 3 mps 737 mmHg 96%
    01:00 +14°C° 0.6 mm 2 mps 737 mmHg 96%
    02:00 +14°C° 0.6 mm 2 mps 737 mmHg 96%
    03:00 +13°C° 0.6 mm 2 mps 737 mmHg 96%
    04:00 +12°C° 0.9 mm 3 mps 737 mmHg 96%
    05:00 +11°C° 0.9 mm 3 mps 738 mmHg 96%
    06:00 +10°C° 0.9 mm 4 mps 738 mmHg 95%
    07:00 +11°C° 0.3 mm 4 mps 739 mmHg 91%
    08:00 +12°C° 0.3 mm 4 mps 739 mmHg 87%
    09:00 +12°C° 0.3 mm 4 mps 740 mmHg 82%
    10:00 +13°C° 0.3 mm 5 mps 740 mmHg 80%
    11:00 +13°C° 0.3 mm 5 mps 740 mmHg 77%
    12:00 +14°C° 0.3 mm 5 mps 740 mmHg 75%
    13:00 +13°C° 0.4 mm 5 mps 740 mmHg 76%
    14:00 +13°C° 0.4 mm 6 mps 740 mmHg 77%
    15:00 +13°C° 0.4 mm 6 mps 740 mmHg 79%
    16:00 +11°C° 0.1 mm 6 mps 740 mmHg 79%
    17:00 +12°C° 0.1 mm 5 mps 740 mmHg 80%
    18:00 +10°C° 0.1 mm 5 mps 740 mmHg 80%
    19:00 +9°C° 0 mm 6 mps 740 mmHg 80%
    20:00 +9°C° 0 mm 6 mps 740 mmHg 80%
    21:00 +8°C° 0 mm 6 mps 740 mmHg 80%
    22:00 +8°C° 0.2 mm 6 mps 740 mmHg 83%
    23:00 +8°C° 0.2 mm 7 mps 740 mmHg 85%

    25 April, Thursday

    Time Temperature Precipitation Wind Pressure Humidity
    00:00 +8°C° 0.2 mm 7 mps 740 mmHg 88%
    01:00 +8°C° 0.1 mm 7 mps 740 mmHg 87%
    02:00 +8°C° 0.1 mm 7 mps 740 mmHg 85%
    03:00 +8°C° 0.1 mm 7 mps 741 mmHg 84%
    04:00 +8°C° 0 mm 7 mps 741 mmHg 84%
    05:00 +7°C° 0 mm 8 mps 741 mmHg 85%
    06:00 +7°C° 0 mm 8 mps 741 mmHg 85%
    07:00 +9°C° 0 mm 8 mps 741 mmHg 81%
    08:00 +8°C° 0 mm 9 mps 741 mmHg 77%
    09:00 +10°C° 0 mm 9 mps 742 mmHg 72%
    10:00 +11°C° 0.1 mm 9 mps 742 mmHg 70%
    11:00 +11°C° 0.1 mm 9 mps 742 mmHg 67%
    12:00 +12°C° 0.1 mm 9 mps 743 mmHg 64%
    13:00 +12°C° 0.2 mm 8 mps 743 mmHg 65%
    14:00 +12°C° 0.2 mm 8 mps 743 mmHg 66%
    15:00 +12°C° 0.2 mm 8 mps 743 mmHg 67%
    16:00 +11°C° 0.2 mm 7 mps 743 mmHg 72%
    17:00 +10°C° 0.2 mm 5 mps 744 mmHg 77%
    18:00 +10°C° 0.2 mm 4 mps 744 mmHg 82%
    19:00 +8°C° 0.1 mm 4 mps 745 mmHg 84%
    20:00 +7°C° 0.1 mm 4 mps 745 mmHg 87%
    21:00 +6°C° 0.1 mm 4 mps 746 mmHg 90%
    22:00 +6°C° 0 mm 4 mps 747 mmHg 90%
    23:00 +5°C° 0 mm 5 mps 747 mmHg 90%
    Show more